Location: McMinnville
(35.6830°N, 85.7700°W)
Time: 01:46:54
(UTC-06:00)

ARIANE 6 FM1 Upper Stage - Visible Passes

Search period start: 13 February 2026 00:00
Search period end: 23 February 2026 00:00
Orbit: 522 x 609 km, 62.0° (Epoch: 11 February)

Date Brightness Start Highest point End Pass type
(mag) Time Alt. Az. Time Alt. Az. Time Alt. Az.
14 Feb 5.4 19:45:38 10° NNW 19:45:39 10° NNW 19:45:39 10° NNW visible
15 Feb 5.1 19:45:28 10° NNW 19:46:12 15° NNW 19:46:12 15° NNW visible
16 Feb 4.6 18:08:36 10° NNE 18:09:55 11° NE 18:10:51 11° NE visible
16 Feb 4.7 19:45:25 10° NW 19:46:54 22° NW 19:46:54 22° NW visible
17 Feb 4.3 18:07:33 10° N 18:10:05 16° NE 18:11:44 13° ENE visible
17 Feb 4.4 19:45:30 10° NW 19:47:48 30° WNW 19:47:48 30° WNW visible
18 Feb 3.8 18:06:58 10° N 18:10:10 23° NE 18:12:50 13° E visible
18 Feb 4.4 19:45:44 10° WNW 19:48:56 27° WSW 19:48:56 27° WSW visible
19 Feb 3.2 18:06:36 10° NNW 18:10:12 34° NE 18:13:51 10° ESE visible
19 Feb 5.1 19:46:14 10° WNW 19:48:56 18° WSW 19:50:23 15° SW visible
20 Feb 2.7 18:06:19 10° NNW 18:10:12 52° NE 18:14:05 10° SE visible
20 Feb 5.7 19:47:31 10° W 19:48:43 11° WSW 19:49:56 10° SW visible
21 Feb 2.5 18:06:10 10° NNW 18:10:08 84° ENE 18:14:08 10° SE visible
22 Feb 3.2 18:06:08 10° NW 18:10:01 60° WSW 18:13:57 10° SSE visible
